TimeCDT,TemperatureF,Dew PointF,Humidity,Sea Level PressureIn,VisibilityMPH,Wind Direction,Wind SpeedMPH,Gust SpeedMPH,PrecipitationIn,Events,Conditions,WindDirDegrees,DateUTC
12:13 AM,28.4,23.0,80,30.23,10.0,South,6.9,-,N/A,,Clear,190,2012-10-07 05:13:00
12:33 AM,28.4,21.2,74,30.22,10.0,South,6.9,-,N/A,,Clear,190,2012-10-07 05:33:00
12:53 AM,28.4,21.2,74,30.21,10.0,South,6.9,-,N/A,,Clear,190,2012-10-07 05:53:00
1:13 AM,28.4,21.2,74,30.21,10.0,South,8.1,-,N/A,,Clear,190,2012-10-07 06:13:00
1:33 AM,28.4,21.2,74,30.20,10.0,South,8.1,-,N/A,,Clear,190,2012-10-07 06:33:00
1:53 AM,30.2,23.0,75,30.20,10.0,South,8.1,-,N/A,,Clear,190,2012-10-07 06:53:00
2:13 AM,28.4,23.0,80,30.19,10.0,South,6.9,-,N/A,,Clear,180,2012-10-07 07:13:00
2:33 AM,26.6,21.2,80,30.18,10.0,South,6.9,-,N/A,,Clear,170,2012-10-07 07:33:00
2:53 AM,26.6,21.2,80,30.18,10.0,South,5.8,-,N/A,,Clear,190,2012-10-07 07:53:00
3:13 AM,28.4,21.2,74,30.17,10.0,South,6.9,-,N/A,,Clear,180,2012-10-07 08:13:00
3:53 AM,26.6,21.2,80,30.16,10.0,South,4.6,-,N/A,,Clear,170,2012-10-07 08:53:00
4:13 AM,26.6,21.2,80,30.15,10.0,SSE,5.8,-,N/A,,Clear,160,2012-10-07 09:13:00
4:33 AM,26.6,21.2,80,30.14,10.0,SSE,6.9,-,N/A,,Clear,160,2012-10-07 09:33:00
4:53 AM,24.8,21.2,86,30.14,10.0,South,5.8,-,N/A,,Clear,170,2012-10-07 09:53:00
5:13 AM,24.8,19.4,80,30.13,10.0,South,6.9,-,N/A,,Clear,170,2012-10-07 10:13:00
5:33 AM,24.8,19.4,80,30.13,10.0,South,6.9,-,N/A,,Clear,170,2012-10-07 10:33:00
5:53 AM,26.6,21.2,80,30.12,10.0,South,6.9,-,N/A,,Clear,170,2012-10-07 10:53:00
6:13 AM,24.8,21.2,86,30.11,10.0,South,6.9,-,N/A,,Clear,170,2012-10-07 11:13:00
6:33 AM,24.8,21.2,86,30.11,10.0,South,5.8,-,N/A,,Clear,170,2012-10-07 11:33:00
6:53 AM,24.8,19.4,80,30.10,10.0,South,6.9,-,N/A,,Clear,170,2012-10-07 11:53:00
7:13 AM,24.8,21.2,86,30.10,10.0,SSE,8.1,-,N/A,,Clear,160,2012-10-07 12:13:00
7:33 AM,24.8,21.2,86,30.10,10.0,SSE,6.9,-,N/A,,Clear,160,2012-10-07 12:33:00
7:53 AM,26.6,21.2,80,30.09,10.0,SSE,8.1,-,N/A,,Clear,160,2012-10-07 12:53:00
8:13 AM,26.6,21.2,80,30.08,10.0,South,6.9,-,N/A,,Clear,170,2012-10-07 13:13:00
8:33 AM,28.4,24.8,86,30.08,10.0,SSE,6.9,-,N/A,,Clear,160,2012-10-07 13:33:00
8:53 AM,30.2,24.8,80,30.08,10.0,South,8.1,-,N/A,,Clear,170,2012-10-07 13:53:00
9:13 AM,32.0,24.8,75,30.07,10.0,South,8.1,-,N/A,,Clear,170,2012-10-07 14:13:00
9:33 AM,33.8,24.8,70,30.07,10.0,South,9.2,-,N/A,,Clear,190,2012-10-07 14:33:00
9:53 AM,35.6,26.6,70,30.06,10.0,South,8.1,-,N/A,,Clear,190,2012-10-07 14:53:00
10:14 AM,39.2,26.6,61,30.06,10.0,SSW,11.5,-,N/A,,Clear,210,2012-10-07 15:14:00
10:33 AM,39.2,24.8,56,30.04,10.0,SSW,11.5,-,N/A,,Clear,210,2012-10-07 15:33:00
10:53 AM,42.8,24.8,49,30.03,10.0,SW,11.5,-,N/A,,Clear,220,2012-10-07 15:53:00
11:14 AM,46.4,24.8,43,30.02,10.0,SW,15.0,-,N/A,,Clear,230,2012-10-07 16:14:00
11:33 AM,46.4,23.0,40,30.01,10.0,SW,13.8,-,N/A,,Clear,220,2012-10-07 16:33:00
11:53 AM,50.0,21.2,32,30.00,10.0,SW,13.8,18.4,N/A,,Clear,230,2012-10-07 16:53:00
12:13 PM,51.8,19.4,28,29.99,10.0,WSW,16.1,-,N/A,,Clear,240,2012-10-07 17:13:00
12:33 PM,53.6,19.4,26,29.98,10.0,SW,16.1,-,N/A,,Clear,220,2012-10-07 17:33:00
12:53 PM,53.6,21.2,28,29.97,10.0,WSW,16.1,19.6,N/A,,Clear,240,2012-10-07 17:53:00
1:33 PM,53.6,21.2,28,29.95,10.0,West,18.4,-,N/A,,Clear,260,2012-10-07 18:33:00
1:53 PM,53.6,21.2,28,29.94,10.0,WSW,17.3,21.9,N/A,,Clear,250,2012-10-07 18:53:00
2:13 PM,55.4,21.2,26,29.93,10.0,West,18.4,27.6,N/A,,Scattered Clouds,260,2012-10-07 19:13:00
2:33 PM,55.4,21.2,26,29.92,10.0,WSW,20.7,25.3,N/A,,Clear,240,2012-10-07 19:33:00
2:53 PM,55.4,21.2,26,29.91,10.0,WSW,13.8,23.0,N/A,,Scattered Clouds,250,2012-10-07 19:53:00
3:13 PM,57.2,21.2,25,29.90,10.0,WSW,17.3,20.7,N/A,,Scattered Clouds,250,2012-10-07 20:13:00
3:33 PM,55.4,21.2,26,29.89,10.0,SW,15.0,23.0,N/A,,Mostly Cloudy,230,2012-10-07 20:33:00
3:53 PM,55.4,21.2,26,29.89,10.0,WSW,11.5,19.6,N/A,,Overcast,250,2012-10-07 20:53:00
4:13 PM,57.2,19.4,23,29.88,10.0,WSW,18.4,21.9,N/A,,Mostly Cloudy,250,2012-10-07 21:13:00
4:33 PM,55.4,19.4,25,29.87,10.0,WSW,10.4,-,N/A,,Overcast,250,2012-10-07 21:33:00
4:53 PM,57.2,19.4,23,29.87,10.0,WSW,11.5,-,N/A,,Scattered Clouds,250,2012-10-07 21:53:00
5:13 PM,55.4,19.4,25,29.86,10.0,WSW,11.5,18.4,N/A,,Clear,240,2012-10-07 22:13:00
5:33 PM,57.2,19.4,23,29.86,10.0,West,8.1,17.3,N/A,,Clear,260,2012-10-07 22:33:00
5:53 PM,55.4,19.4,25,29.85,10.0,WSW,9.2,-,N/A,,Clear,250,2012-10-07 22:53:00
6:13 PM,55.4,19.4,25,29.85,10.0,SW,8.1,-,N/A,,Clear,230,2012-10-07 23:13:00
6:33 PM,51.8,21.2,30,29.84,10.0,SSW,8.1,-,N/A,,Clear,210,2012-10-07 23:33:00
6:53 PM,50.0,21.2,32,29.84,10.0,SSW,8.1,-,N/A,,Clear,210,2012-10-07 23:53:00
7:13 PM,48.2,21.2,34,29.84,10.0,South,8.1,-,N/A,,Clear,190,2012-10-08 00:13:00
7:33 PM,48.2,21.2,34,29.84,10.0,South,8.1,-,N/A,,Clear,190,2012-10-08 00:33:00
7:50 PM,46.4,21.2,37,29.84,10.0,South,6.9,-,N/A,,Clear,190,2012-10-08 00:50:00
8:13 PM,44.6,21.2,39,29.84,10.0,South,5.8,-,N/A,,Clear,190,2012-10-08 01:13:00
8:33 PM,44.6,21.2,39,29.84,10.0,South,6.9,-,N/A,,Clear,190,2012-10-08 01:33:00
8:54 PM,42.8,21.2,42,29.84,10.0,South,6.9,-,N/A,,Clear,190,2012-10-08 01:54:00
9:13 PM,39.2,21.2,49,29.83,10.0,South,6.9,-,N/A,,Clear,180,2012-10-08 02:13:00
9:33 PM,41.0,21.2,45,29.84,10.0,South,5.8,-,N/A,,Clear,170,2012-10-08 02:33:00
9:54 PM,39.2,21.2,49,29.83,10.0,South,6.9,-,N/A,,Clear,170,2012-10-08 02:54:00
10:13 PM,37.4,21.2,52,29.83,10.0,SSE,6.9,-,N/A,,Clear,160,2012-10-08 03:13:00
10:33 PM,37.4,21.2,52,29.83,10.0,SSE,6.9,-,N/A,,Clear,160,2012-10-08 03:33:00
10:53 PM,37.4,21.2,52,29.82,10.0,SSE,5.8,-,N/A,,Clear,160,2012-10-08 03:53:00
11:13 PM,37.4,21.2,52,29.82,10.0,SSE,5.8,-,N/A,,Clear,160,2012-10-08 04:13:00
11:33 PM,37.4,21.2,52,29.81,10.0,SSE,5.8,-,N/A,,Clear,160,2012-10-08 04:33:00
11:53 PM,37.4,21.2,52,29.81,10.0,SSE,5.8,-,N/A,,Clear,150,2012-10-08 04:53:00